When you browse on this site, cookies collect data to enhance your experience and personalize the content and advertising you see.
Visit our Privacy Policy to learn more. By continuing to use the site, you agree to this use of cookies and data.

Hourly Weather San Luis

Today, 4 August, Tuesday

Time Temperature Precipitation Wind Pressure Humidity
00:00 +17°C° 0 mm 2 mps 698 mmHg 63%
01:00 +17°C° 0 mm 2 mps 697 mmHg 65%
02:00 +18°C° 0 mm 1 mps 698 mmHg 69%
03:00 +16°C° 0 mm 1 mps 698 mmHg 70%
04:00 +16°C° 0 mm 1 mps 697 mmHg 71%
05:00 +16°C° 0 mm 1 mps 697 mmHg 73%
06:00 +16°C° 0 mm 1 mps 698 mmHg 71%
07:00 +16°C° 0 mm 1 mps 698 mmHg 69%
08:00 +18°C° 0 mm 1 mps 698 mmHg 67%
09:00 +19°C° 0 mm 2 mps 699 mmHg 59%
10:00 +22°C° 0 mm 3 mps 699 mmHg 51%
11:00 +25°C° 0 mm 4 mps 699 mmHg 43%
12:00 +26°C° 0 mm 5 mps 699 mmHg 40%
13:00 +27°C° 0 mm 6 mps 699 mmHg 38%
14:00 +28°C° 0 mm 7 mps 698 mmHg 35%
15:00 +28°C° 0 mm 6 mps 698 mmHg 36%
16:00 +27°C° 0 mm 5 mps 697 mmHg 37%
17:00 +27°C° 0 mm 5 mps 697 mmHg 38%
18:00 +23°C° 0 mm 4 mps 697 mmHg 49%
19:00 +20°C° 0 mm 3 mps 697 mmHg 59%
20:00 +18°C° 0 mm 2 mps 697 mmHg 70%
21:00 +17°C° 0 mm 2 mps 697 mmHg 71%
22:00 +18°C° 0 mm 1 mps 697 mmHg 73%
23:00 +16°C° 0 mm 1 mps 696 mmHg 75%

Tomorrow, 5 August, Wednesday

Time Temperature Precipitation Wind Pressure Humidity
00:00 +15°C° 0 mm 1 mps 696 mmHg 75%
01:00 +15°C° 0 mm 1 mps 695 mmHg 76%
02:00 +14°C° 0 mm 1 mps 695 mmHg 76%
03:00 +14°C° 0 mm 2 mps 695 mmHg 76%
04:00 +13°C° 0 mm 2 mps 695 mmHg 76%
05:00 +12°C° 0 mm 2 mps 694 mmHg 76%
06:00 +13°C° 0 mm 2 mps 695 mmHg 75%
07:00 +13°C° 0 mm 1 mps 695 mmHg 74%
08:00 +13°C° 0 mm 1 mps 696 mmHg 73%
09:00 +15°C° 0 mm 2 mps 697 mmHg 67%
10:00 +17°C° 0 mm 2 mps 697 mmHg 60%
11:00 +19°C° 0 mm 3 mps 698 mmHg 54%
12:00 +20°C° 0 mm 3 mps 698 mmHg 51%
13:00 +21°C° 0 mm 3 mps 698 mmHg 47%
14:00 +22°C° 0 mm 3 mps 698 mmHg 44%
15:00 +21°C° 0 mm 4 mps 698 mmHg 46%
16:00 +21°C° 0 mm 5 mps 698 mmHg 49%
17:00 +20°C° 0 mm 7 mps 698 mmHg 51%
18:00 +18°C° 0 mm 7 mps 698 mmHg 54%
19:00 +17°C° 0 mm 7 mps 699 mmHg 57%
20:00 +16°C° 0 mm 7 mps 700 mmHg 59%
21:00 +15°C° 0 mm 8 mps 700 mmHg 60%
22:00 +15°C° 0 mm 9 mps 701 mmHg 61%
23:00 +13°C° 0 mm 10 mps 702 mmHg 62%

Day after tomorrow, 6 August, Thursday

Time Temperature Precipitation Wind Pressure Humidity
00:00 +13°C° 0 mm 10 mps 702 mmHg 58%
01:00 +12°C° 0 mm 10 mps 703 mmHg 54%
02:00 +12°C° 0 mm 10 mps 703 mmHg 50%
03:00 +11°C° 0 mm 10 mps 703 mmHg 49%
04:00 +10°C° 0 mm 9 mps 703 mmHg 47%
05:00 +8°C° 0 mm 9 mps 704 mmHg 45%
06:00 +8°C° 0 mm 9 mps 704 mmHg 44%
07:00 +7°C° 0 mm 9 mps 705 mmHg 42%
08:00 +7°C° 0 mm 9 mps 706 mmHg 41%
09:00 +8°C° 0 mm 9 mps 706 mmHg 37%
10:00 +10°C° 0 mm 9 mps 707 mmHg 32%
11:00 +12°C° 0 mm 9 mps 707 mmHg 27%
12:00 +12°C° 0 mm 9 mps 706 mmHg 25%
13:00 +13°C° 0 mm 8 mps 706 mmHg 23%
14:00 +15°C° 0 mm 8 mps 705 mmHg 22%
15:00 +14°C° 0 mm 7 mps 704 mmHg 22%
16:00 +14°C° 0 mm 7 mps 704 mmHg 22%
17:00 +14°C° 0 mm 7 mps 703 mmHg 22%
18:00 +12°C° 0 mm 7 mps 703 mmHg 23%
19:00 +11°C° 0 mm 6 mps 703 mmHg 25%
20:00 +10°C° 0 mm 6 mps 703 mmHg 26%
21:00 +10°C° 0 mm 5 mps 703 mmHg 28%
22:00 +11°C° 0 mm 4 mps 702 mmHg 29%
23:00 +11°C° 0 mm 4 mps 702 mmHg 31%

7 August, Friday

Time Temperature Precipitation Wind Pressure Humidity
00:00 +10°C° 0 mm 3 mps 702 mmHg 35%
01:00 +10°C° 0 mm 3 mps 701 mmHg 39%
02:00 +9°C° 0 mm 3 mps 701 mmHg 43%
03:00 +8°C° 0 mm 3 mps 701 mmHg 44%
04:00 +8°C° 0 mm 2 mps 700 mmHg 44%
05:00 +7°C° 0 mm 2 mps 700 mmHg 44%
06:00 +8°C° 0 mm 2 mps 701 mmHg 44%
07:00 +8°C° 0 mm 2 mps 701 mmHg 44%
08:00 +9°C° 0 mm 2 mps 702 mmHg 44%
09:00 +10°C° 0 mm 2 mps 702 mmHg 39%
10:00 +13°C° 0 mm 2 mps 703 mmHg 35%
11:00 +15°C° 0 mm 2 mps 704 mmHg 30%
12:00 +15°C° 0 mm 2 mps 704 mmHg 29%
13:00 +16°C° 0 mm 2 mps 703 mmHg 29%
14:00 +17°C° 0 mm 2 mps 703 mmHg 28%
15:00 +17°C° 0 mm 3 mps 703 mmHg 28%
16:00 +17°C° 0 mm 3 mps 703 mmHg 29%
17:00 +17°C° 0 mm 4 mps 703 mmHg 29%
18:00 +14°C° 0 mm 4 mps 703 mmHg 34%
19:00 +12°C° 0 mm 4 mps 703 mmHg 39%
20:00 +11°C° 0 mm 4 mps 704 mmHg 43%
21:00 +10°C° 0 mm 4 mps 704 mmHg 49%
22:00 +10°C° 0 mm 4 mps 704 mmHg 54%
23:00 +8°C° 0 mm 4 mps 704 mmHg 59%

8 August, Saturday

Time Temperature Precipitation Wind Pressure Humidity
00:00 +8°C° 0 mm 4 mps 704 mmHg 59%
01:00 +9°C° 0 mm 3 mps 703 mmHg 60%
02:00 +9°C° 0 mm 3 mps 703 mmHg 60%
03:00 +9°C° 0 mm 3 mps 702 mmHg 58%
04:00 +9°C° 0 mm 3 mps 702 mmHg 57%
05:00 +9°C° 0 mm 3 mps 701 mmHg 55%
06:00 +9°C° 0 mm 3 mps 702 mmHg 54%
07:00 +9°C° 0 mm 3 mps 702 mmHg 53%
08:00 +9°C° 0 mm 3 mps 702 mmHg 53%
09:00 +11°C° 0 mm 3 mps 702 mmHg 46%
10:00 +14°C° 0 mm 3 mps 702 mmHg 40%
11:00 +17°C° 0 mm 4 mps 702 mmHg 34%
12:00 +18°C° 0 mm 4 mps 701 mmHg 32%
13:00 +20°C° 0 mm 4 mps 701 mmHg 30%
14:00 +21°C° 0 mm 5 mps 700 mmHg 27%
15:00 +20°C° 0 mm 4 mps 699 mmHg 29%
16:00 +20°C° 0 mm 4 mps 699 mmHg 31%
17:00 +20°C° 0 mm 3 mps 698 mmHg 33%
18:00 +18°C° 0 mm 3 mps 698 mmHg 39%
19:00 +16°C° 0 mm 3 mps 698 mmHg 44%
20:00 +13°C° 0 mm 3 mps 698 mmHg 50%
21:00 +13°C° 0 mm 3 mps 698 mmHg 51%
22:00 +13°C° 0 mm 3 mps 698 mmHg 53%
23:00 +14°C° 0 mm 2 mps 698 mmHg 55%

9 August, Sunday

Time Temperature Precipitation Wind Pressure Humidity
00:00 +12°C° 0 mm 3 mps 698 mmHg 59%
01:00 +12°C° 0 mm 3 mps 697 mmHg 63%
02:00 +12°C° 0 mm 4 mps 697 mmHg 66%
03:00 +12°C° 0 mm 4 mps 697 mmHg 70%
04:00 +11°C° 0 mm 4 mps 696 mmHg 74%
05:00 +11°C° 0 mm 4 mps 696 mmHg 78%
06:00 +12°C° 0 mm 4 mps 696 mmHg 75%
07:00 +12°C° 0 mm 3 mps 697 mmHg 72%
08:00 +12°C° 0 mm 3 mps 697 mmHg 69%
09:00 +16°C° 0 mm 3 mps 697 mmHg 61%
10:00 +18°C° 0 mm 4 mps 698 mmHg 53%
11:00 +20°C° 0 mm 4 mps 698 mmHg 45%
12:00 +21°C° 0 mm 4 mps 698 mmHg 41%
13:00 +23°C° 0 mm 4 mps 697 mmHg 36%
14:00 +25°C° 0 mm 4 mps 697 mmHg 32%
15:00 +24°C° 0 mm 3 mps 697 mmHg 32%
16:00 +24°C° 0 mm 2 mps 697 mmHg 33%
17:00 +24°C° 0 mm 1 mps 697 mmHg 33%
18:00 +21°C° 0 mm 2 mps 697 mmHg 38%
19:00 +19°C° 0 mm 3 mps 697 mmHg 43%
20:00 +17°C° 0 mm 4 mps 698 mmHg 49%
21:00 +15°C° 0 mm 4 mps 698 mmHg 53%
22:00 +15°C° 0 mm 4 mps 699 mmHg 58%
23:00 +14°C° 0 mm 5 mps 699 mmHg 63%
Show more